[[{"header":{"parameterUnit":"m.s-1","parameterCategory":1,"la1":30.2991,"la2":30.254,"lo1":-89.0895,"lo2":-89.0444,"dy":0.0017,"dx":0.0017,"nx":28,"ny":28,"refTime":"2025-04-26T21:00:00:Z","depth":0,"parameterNumber":2,"parameterNumberName":"U-component_of_WINDS"},"data":[0,0,0,0,0,0,0,0,0,0,0,0,0,0,0,0,0,0,0,0,0,0,0,0,0,0,0,0,0,0,0,0,0,0,0,0,0,0,0,0,0,0,0,0,0,0,0,0,0,0,0,0,0,0,0,0,0,0,0.5596,0.5594,0,0.5489,0.5487,0.5486,0.5395,0.5394,0.5393,0.5392,0.5285,0.5283,0.5281,0,0,0,0,0,0,0,0,0,0,0,0,0,0.5722,0.572,0.5596,0.5594,0.5593,0.5489,0.5487,0.5486,0.5395,0.5394,0.5393,0.5392,0.5285,0.5283,0.5281,0,0,0,0,0,0,0,0,0,0,0,0,0,0.5646,0.5719,0.5596,0.5535,0.5529,0.5489,0.5487,0.5486,0.5396,0.5394,0.5393,0.5391,0.5286,0.5283,0.528,0.5293,0,0,0.5272,0.527,0,0,0,0,0,0,0,0,0.5651,0.5642,0.5545,0.5539,0.5532,0.5454,0.5492,0.5421,0.5396,0.5446,0.5392,0.539,0.5342,0.5335,0.5318,0.5288,0.5283,0.5271,0.527,0.5268,0.5268,0,0,0,0,0,0,0,0.5656,0.5646,0.5553,0.5544,0.5536,0.5513,0.5501,0.5478,0.5404,0.5442,0.5435,0.5423,0.5338,0.5321,0.5315,0.5282,0.5271,0.5269,0.5267,0.5266,0.5254,0.5256,0,0,0,0,0,0,0.567,0.5651,0.5557,0.555,0.5589,0.5512,0.5498,0.548,0.5404,0.5391,0.5425,0.542,0.5327,0.5318,0.5311,0.5319,0.5268,0.5266,0.5264,0.5253,0.5255,0.5256,0,0,0,0,0,0,0.5673,0.5663,0.5561,0.5598,0.5584,0.5512,0.5492,0.5479,0.5462,0.5391,0.5378,0.5421,0.5325,0.5315,0.5297,0.5314,0.5264,0.5262,0.5251,0.5253,0.5255,0.5336,0,0,0,0,0,0,0.5677,0.5664,0.5669,0.5599,0.5582,0.555,0.5493,0.5478,0.5457,0.5449,0.5384,0.5372,0.5323,0.5302,0.5295,0.5309,0.526,0.5249,0.5252,0.5255,0.5332,0.5341,0.5349,0,0,0,0,0,0.5682,0.5697,0.5669,0.5659,0.5586,0.5551,0.5541,0.5485,0.5458,0.5462,0.5416,0.5374,0.5313,0.5301,0.5292,0.5306,0.5248,0.5251,0.5255,0.5328,0.5339,0.5348,0,0,0,0,0,0,0.5771,0.5686,0.5655,0.5648,0.5607,0.5536,0.5538,0.5498,0.5465,0.5459,0.5391,0.5377,0.5367,0.5334,0.5322,0.5313,0.5275,0.5277,0.5334,0.5344,0.5352,0.536,0.5257,0,0,0,0,0,0.5789,0.5768,0.5695,0.5696,0.5677,0.5611,0.5594,0.5554,0.5509,0.5492,0.5445,0.5404,0.5375,0.5358,0.5328,0.5327,0.531,0.5331,0.534,0.5347,0.5349,0.5344,0.5352,0.5267,0.5267,0.5267,0,0,0.5828,0.5779,0.577,0.5712,0.5676,0.5655,0.5597,0.5578,0.5562,0.5489,0.5469,0.5433,0.5383,0.5373,0.5366,0.5346,0.5369,0.5351,0.5358,0.5355,0.5348,0.5356,0.5364,0.5269,0.5268,0.5268,0,0,0.5886,0.5848,0.5843,0.5807,0.5753,0.5709,0.5708,0.5642,0.5615,0.5593,0.5538,0.5517,0.547,0.5436,0.5412,0.5456,0.5415,0.5448,0.5492,0.5488,0.5495,0.55,0.5515,0.5521,0.545,0.5451,0.5451,0,0.5941,0.5907,0.5846,0.5829,0.5804,0.5736,0.573,0.5699,0.5638,0.5623,0.56,0.5538,0.5499,0.548,0.549,0.5474,0.547,0.5455,0.5499,0.5504,0.5508,0.5521,0.5527,0.5455,0.5454,0.5454,0.5454,0,0.5976,0.5953,0.5956,0.5897,0.5873,0.5862,0.5798,0.5781,0.5743,0.5701,0.568,0.5631,0.5589,0.5581,0.5544,0.5556,0.5544,0.5512,0.5472,0.5522,0.5532,0.5537,0.5461,0.546,0.5458,0.5457,0,0,0.6088,0.5994,0.5996,0.5968,0.5902,0.5883,0.5868,0.5826,0.5812,0.5772,0.5757,0.5718,0.5686,0.566,0.5618,0.5615,0.5651,0.5582,0.5579,0.5595,0.5659,0.5683,0.569,0.5623,0.5624,0.5624,0.5663,0,0.6135,0.6104,0.6048,0.6035,0.6012,0.5946,0.5933,0.5891,0.5852,0.5827,0.5783,0.5756,0.5717,0.57,0.5694,0.5648,0.5662,0.5644,0.5608,0.5608,0.5622,0.5696,0.5722,0.576,0.5667,0.5667,0.5668,0,0.6186,0.6148,0.6133,0.6067,0.6055,0.6045,0.6,0.5977,0.5928,0.5899,0.5869,0.5822,0.5803,0.5767,0.5739,0.5728,0.571,0.5685,0.5685,0.5679,0.564,0.5691,0.5771,0.5777,0.5674,0.5674,0.5673,0,0.6268,0.6213,0.6196,0.6174,0.6097,0.6091,0.6059,0.6007,0.5985,0.5947,0.5931,0.5892,0.587,0.584,0.5784,0.5764,0.5762,0.5722,0.5737,0.5738,0.5739,0.5739,0.5817,0.5729,0.5729,0.5729,0.5729,0,0.6326,0.6319,0.6232,0.6221,0.6211,0.6146,0.6138,0.6099,0.6054,0.6035,0.5976,0.5959,0.5887,0.5861,0.5818,0.58,0.5791,0.5767,0.5755,0.5771,0.5774,0.5758,0.5754,0.573,0.573,0.573,0.573,0,0.6415,0.6357,0.6334,0.6262,0.6243,0.6239,0.6177,0.6164,0.6121,0.6097,0.6088,0.602,0.5987,0.5928,0.5879,0.5849,0.584,0.582,0.5856,0.5849,0.5866,0.5865,0.5935,0.594,0.5852,0.5852,0.5853,0,0.6455,0.6448,0.6375,0.6357,0.6326,0.6299,0.6276,0.6211,0.6189,0.6131,0.6125,0.6087,0.6053,0.6004,0.595,0.5911,0.589,0.5917,0.5884,0.59,0.5888,0.5889,0.5887,0.5924,0.5926,0.5927,0.5928,0,0.6532,0.6503,0.6471,0.6429,0.6402,0.6366,0.6326,0.6315,0.6242,0.622,0.6185,0.6158,0.6107,0.607,0.6023,0.5989,0.5946,0.5939,0.594,0.5956,0.5976,0.5964,0.5876,0.5937,0.5936,0.5935,0.5935,0.5935,0.6597,0.6587,0.6533,0.6499,0.6462,0.6427,0.641,0.6364,0.6333,0.6286,0.625,0.6217,0.6166,0.6099,0.6068,0.6041,0.6021,0.6023,0.6024,0.6025,0.6031,0.5981,0.6033,0.6032,0.6032,0.6032,0.6031,0,0.667,0.6632,0.6601,0.6547,0.652,0.6481,0.6435,0.6415,0.6386,0.6342,0.631,0.6269,0.6232,0.6175,0.6133,0.6123,0.6102,0.6114,0.6114,0.6106,0.6052,0.6054,0.6132,0.6132,0.6132,0.6132,0.6131,0.6131,0.6705,0.6684,0.6649,0.661,0.6571,0.6538,0.6515,0.6481,0.6446,0.6402,0.6371,0.6334,0.6284,0.6238,0.6202,0.6186,0.6173,0.6192,0.617,0.612,0.611,0.6102,0.6103,0.619,0.619,0.6226,0.6226,0.6227]},{"header":{"parameterUnit":"m.s-1","parameterCategory":1,"la1":30.2991,"la2":30.254,"lo1":-89.0895,"lo2":-89.0444,"dy":0.0017,"dx":0.0017,"nx":28,"ny":28,"refTime":"2025-04-26T21:00:00:Z","depth":0,"parameterNumber":3,"parameterNumberName":"V-component_of_WINDS"},"data":[0,0,0,0,0,0,0,0,0,0,0,0,0,0,0,0,0,0,0,0,0,0,0,0,0,0,0,0,0,0,0,0,0,0,0,0,0,0,0,0,0,0,0,0,0,0,0,0,0,0,0,0,0,0,0,0,0,0,0.6872,0.6873,0,0.6957,0.6958,0.6959,0.6979,0.6978,0.6978,0.6977,0.7067,0.707,0.7073,0,0,0,0,0,0,0,0,0,0,0,0,0,0.6728,0.673,0.6872,0.6873,0.6874,0.6957,0.6958,0.6959,0.6979,0.6978,0.6978,0.6977,0.7066,0.707,0.7073,0,0,0,0,0,0,0,0,0,0,0,0,0,0.6799,0.6731,0.6871,0.6894,0.6896,0.6957,0.6958,0.696,0.6979,0.6978,0.6978,0.6977,0.7065,0.707,0.7074,0.7119,0,0,0.7087,0.7089,0,0,0,0,0,0,0,0,0.6795,0.6805,0.6889,0.6892,0.6895,0.6956,0.694,0.7013,0.698,0.6948,0.6977,0.6976,0.7031,0.7038,0.7057,0.7123,0.7127,0.7088,0.709,0.7092,0.7094,0,0,0,0,0,0,0,0.679,0.6801,0.6906,0.689,0.6894,0.69,0.6909,0.6954,0.6994,0.6951,0.6952,0.6962,0.7033,0.7052,0.7059,0.7128,0.7088,0.7092,0.7094,0.7096,0.7236,0.7237,0,0,0,0,0,0,0.6781,0.6797,0.6903,0.6908,0.6842,0.6903,0.6914,0.6938,0.6993,0.7001,0.6963,0.6963,0.7045,0.7054,0.7062,0.7118,0.7092,0.7096,0.7099,0.7235,0.7236,0.7237,0,0,0,0,0,0,0.6778,0.679,0.6899,0.6853,0.6867,0.6907,0.6934,0.694,0.6959,0.7002,0.701,0.6975,0.7045,0.7056,0.7104,0.7122,0.7098,0.7102,0.7233,0.7235,0.7236,0.7231,0,0,0,0,0,0,0.6774,0.6789,0.6806,0.6853,0.687,0.694,0.6935,0.6942,0.6967,0.6967,0.7016,0.7023,0.7045,0.7098,0.7109,0.7127,0.7106,0.7232,0.7234,0.7236,0.723,0.7232,0.7234,0,0,0,0,0,0.6768,0.6802,0.6807,0.682,0.6892,0.6941,0.695,0.6974,0.6968,0.6986,0.7013,0.7022,0.7118,0.7102,0.7115,0.7135,0.7231,0.7233,0.7236,0.7229,0.7232,0.7234,0,0,0,0,0,0,0.6758,0.6809,0.6815,0.6864,0.6898,0.6944,0.6967,0.6976,0.7013,0.7012,0.7041,0.7052,0.7098,0.7122,0.7104,0.7182,0.7174,0.7179,0.7165,0.7168,0.717,0.7164,0.711,0,0,0,0,0,0.6761,0.6795,0.6838,0.6878,0.6894,0.6928,0.695,0.6965,0.7001,0.7016,0.7047,0.7083,0.7121,0.7146,0.7183,0.7233,0.7244,0.7253,0.7255,0.7257,0.7261,0.7289,0.7294,0.7245,0.7245,0.7245,0,0,0.6768,0.68,0.6821,0.6877,0.6904,0.694,0.694,0.6978,0.7005,0.7022,0.707,0.7093,0.7135,0.7184,0.7208,0.7205,0.7277,0.726,0.7261,0.7265,0.7292,0.7297,0.7301,0.7246,0.7246,0.7246,0,0,0.68,0.6827,0.6863,0.6891,0.6932,0.6954,0.6962,0.7007,0.7023,0.7071,0.7084,0.7117,0.7182,0.7211,0.7235,0.7276,0.7285,0.7287,0.7299,0.7326,0.733,0.7334,0.7349,0.7354,0.7291,0.7291,0.7291,0,0.6804,0.6858,0.6881,0.6918,0.6942,0.6958,0.6995,0.7021,0.7073,0.7089,0.7085,0.7167,0.7196,0.7252,0.7262,0.728,0.7291,0.7282,0.7327,0.7331,0.7335,0.735,0.7355,0.7291,0.7291,0.7291,0.7291,0,0.6861,0.6898,0.6922,0.6971,0.6998,0.7035,0.7063,0.7088,0.71,0.7123,0.7171,0.7206,0.7251,0.7265,0.7278,0.7323,0.732,0.7321,0.7315,0.7339,0.7354,0.7359,0.7291,0.7291,0.7291,0.7291,0,0,0.689,0.6949,0.6958,0.698,0.7026,0.7056,0.7093,0.7136,0.7156,0.7191,0.7224,0.7278,0.7279,0.7305,0.7322,0.7345,0.7376,0.7344,0.7345,0.7349,0.7428,0.7427,0.7433,0.7381,0.7382,0.7383,0.7424,0,0.6928,0.6994,0.7015,0.7071,0.7106,0.7121,0.7153,0.7185,0.7207,0.724,0.7264,0.7302,0.73,0.7316,0.734,0.7367,0.7392,0.7364,0.7413,0.7414,0.7403,0.744,0.744,0.7477,0.743,0.7431,0.7432,0,0.6981,0.7016,0.7075,0.7116,0.7131,0.716,0.72,0.7231,0.7268,0.7282,0.7311,0.7325,0.7365,0.7355,0.7411,0.7391,0.7412,0.7428,0.743,0.7437,0.7425,0.7448,0.7489,0.7495,0.7441,0.744,0.7439,0,0.6997,0.7058,0.7101,0.7119,0.7168,0.7188,0.721,0.7245,0.7269,0.7305,0.7321,0.7361,0.7383,0.7414,0.7438,0.7429,0.7492,0.7484,0.7506,0.7505,0.7519,0.7518,0.7565,0.7531,0.7531,0.7531,0.7531,0,0.7037,0.7073,0.7108,0.7135,0.7175,0.7199,0.7238,0.7261,0.7292,0.7324,0.7339,0.7369,0.7399,0.7432,0.7452,0.7495,0.7505,0.7518,0.7523,0.7517,0.7516,0.7532,0.753,0.7533,0.7532,0.7532,0.7532,0,0.7062,0.7087,0.7135,0.7177,0.7188,0.7216,0.7252,0.7279,0.73,0.734,0.735,0.7384,0.7425,0.7452,0.7504,0.7517,0.7564,0.7568,0.7551,0.7554,0.7574,0.7572,0.7633,0.7643,0.7602,0.7602,0.7603,0,0.7087,0.7114,0.7158,0.718,0.7201,0.7236,0.726,0.7284,0.7309,0.7352,0.7374,0.7414,0.7449,0.7512,0.7542,0.7582,0.7587,0.7606,0.7594,0.7587,0.7588,0.7587,0.759,0.7609,0.7609,0.7609,0.7609,0,0.7128,0.7139,0.7172,0.721,0.7238,0.727,0.7301,0.7318,0.7348,0.7375,0.7415,0.7442,0.7494,0.7535,0.7577,0.76,0.761,0.7613,0.762,0.7615,0.7604,0.7611,0.7557,0.7612,0.7611,0.7611,0.7611,0.7611,0.7154,0.7179,0.7213,0.725,0.7276,0.7305,0.7332,0.7356,0.7389,0.7433,0.7445,0.7488,0.7524,0.7581,0.7604,0.7638,0.7637,0.7647,0.765,0.7652,0.7652,0.7598,0.7646,0.7646,0.7646,0.7646,0.7646,0,0.7196,0.7219,0.7252,0.7295,0.7324,0.7329,0.7364,0.7388,0.7425,0.7457,0.749,0.7536,0.7575,0.7608,0.7648,0.7669,0.7675,0.7679,0.7678,0.7683,0.7651,0.7641,0.7674,0.7674,0.7674,0.7674,0.7674,0.7674,0.7222,0.7264,0.7278,0.7334,0.7356,0.7397,0.7416,0.7443,0.7469,0.752,0.7552,0.7572,0.7604,0.7647,0.7683,0.7692,0.7706,0.771,0.7719,0.7689,0.7686,0.7683,0.7674,0.7712,0.7712,0.7749,0.7749,0.7749]}]]